• în România
  • Lista ţărilor
  • Pe 7 zile
  • Temperatura apei
  • Hartă satelitară
  • Meteo pe hartă
  • Widget-uri
  • user-avatar
    Intrare

    Meteo pe oră la Craiova

    Astăzi, 23 Septembrie, Sâmbătă

    Timp Temperatura Precipitaţii Vânt Presiune Umiditate
    00:00 +13°C° 0 mm 4 m/s 753 mmHg 69%
    01:00 +13°C° 0 mm 4 m/s 753 mmHg 70%
    02:00 +13°C° 0 mm 4 m/s 753 mmHg 75%
    03:00 +13°C° 0 mm 5 m/s 753 mmHg 75%
    04:00 +13°C° 0 mm 5 m/s 753 mmHg 75%
    05:00 +13°C° 0 mm 5 m/s 753 mmHg 76%
    06:00 +13°C° 0 mm 6 m/s 753 mmHg 72%
    07:00 +14°C° 0 mm 6 m/s 753 mmHg 69%
    08:00 +15°C° 0 mm 6 m/s 753 mmHg 66%
    09:00 +16°C° 0 mm 6 m/s 754 mmHg 59%
    10:00 +19°C° 0 mm 6 m/s 754 mmHg 51%
    11:00 +20°C° 0 mm 6 m/s 754 mmHg 44%
    12:00 +21°C° 0 mm 6 m/s 754 mmHg 41%
    13:00 +22°C° 0 mm 6 m/s 754 mmHg 37%
    14:00 +23°C° 0 mm 6 m/s 753 mmHg 34%
    15:00 +22°C° 0 mm 6 m/s 753 mmHg 35%
    16:00 +22°C° 0 mm 6 m/s 753 mmHg 35%
    17:00 +21°C° 0 mm 6 m/s 753 mmHg 36%
    18:00 +20°C° 0 mm 5 m/s 754 mmHg 40%
    19:00 +17°C° 0 mm 5 m/s 754 mmHg 44%
    20:00 +17°C° 0 mm 4 m/s 754 mmHg 48%
    21:00 +15°C° 0 mm 4 m/s 754 mmHg 51%
    22:00 +15°C° 0 mm 4 m/s 754 mmHg 53%
    23:00 +14°C° 0 mm 3 m/s 755 mmHg 56%

    Mâine, 24 Septembrie, Duminică

    Timp Temperatura Precipitaţii Vânt Presiune Umiditate
    00:00 +14°C° 0 mm 3 m/s 755 mmHg 57%
    01:00 +13°C° 0 mm 3 m/s 755 mmHg 59%
    02:00 +14°C° 0 mm 2 m/s 755 mmHg 61%
    03:00 +14°C° 0 mm 2 m/s 755 mmHg 62%
    04:00 +13°C° 0 mm 2 m/s 755 mmHg 63%
    05:00 +13°C° 0 mm 2 m/s 755 mmHg 64%
    06:00 +14°C° 0 mm 2 m/s 755 mmHg 62%
    07:00 +15°C° 0 mm 2 m/s 755 mmHg 59%
    08:00 +16°C° 0 mm 2 m/s 755 mmHg 56%
    09:00 +18°C° 0 mm 3 m/s 755 mmHg 51%
    10:00 +19°C° 0 mm 3 m/s 755 mmHg 46%
    11:00 +21°C° 0 mm 4 m/s 755 mmHg 41%
    12:00 +22°C° 0 mm 4 m/s 755 mmHg 39%
    13:00 +24°C° 0 mm 3 m/s 754 mmHg 37%
    14:00 +25°C° 0 mm 3 m/s 754 mmHg 35%
    15:00 +25°C° 0 mm 3 m/s 754 mmHg 35%
    16:00 +25°C° 0 mm 2 m/s 754 mmHg 35%
    17:00 +25°C° 0 mm 2 m/s 754 mmHg 36%
    18:00 +23°C° 0 mm 2 m/s 754 mmHg 40%
    19:00 +21°C° 0 mm 1 m/s 754 mmHg 45%
    20:00 +20°C° 0 mm 1 m/s 755 mmHg 49%
    21:00 +19°C° 0 mm 1 m/s 755 mmHg 50%
    22:00 +19°C° 0 mm 1 m/s 755 mmHg 51%
    23:00 +18°C° 0 mm 1 m/s 755 mmHg 53%

    Poimâine, 25 Septembrie, Luni

    Timp Temperatura Precipitaţii Vânt Presiune Umiditate
    00:00 +17°C° 0 mm 2 m/s 755 mmHg 53%
    01:00 +17°C° 0 mm 2 m/s 755 mmHg 54%
    02:00 +16°C° 0 mm 2 m/s 755 mmHg 54%
    03:00 +16°C° 0 mm 2 m/s 755 mmHg 55%
    04:00 +16°C° 0 mm 2 m/s 755 mmHg 56%
    05:00 +16°C° 0 mm 3 m/s 755 mmHg 57%
    06:00 +16°C° 0 mm 3 m/s 755 mmHg 56%
    07:00 +17°C° 0 mm 3 m/s 755 mmHg 55%
    08:00 +17°C° 0 mm 3 m/s 755 mmHg 54%
    09:00 +19°C° 0 mm 4 m/s 756 mmHg 51%
    10:00 +21°C° 0 mm 4 m/s 756 mmHg 48%
    11:00 +22°C° 0 mm 4 m/s 756 mmHg 45%
    12:00 +23°C° 0 mm 5 m/s 756 mmHg 42%
    13:00 +25°C° 0 mm 5 m/s 755 mmHg 40%
    14:00 +25°C° 0 mm 5 m/s 755 mmHg 38%
    15:00 +25°C° 0 mm 5 m/s 755 mmHg 38%
    16:00 +25°C° 0 mm 5 m/s 755 mmHg 37%
    17:00 +25°C° 0 mm 5 m/s 755 mmHg 37%
    18:00 +22°C° 0 mm 5 m/s 755 mmHg 41%
    19:00 +21°C° 0 mm 4 m/s 755 mmHg 44%
    20:00 +20°C° 0 mm 4 m/s 756 mmHg 47%
    21:00 +19°C° 0,1 mm 4 m/s 756 mmHg 50%
    22:00 +19°C° 0,1 mm 4 m/s 756 mmHg 52%
    23:00 +18°C° 0,1 mm 4 m/s 756 mmHg 54%

    26 Septembrie, Marţi

    Timp Temperatura Precipitaţii Vânt Presiune Umiditate
    00:00 +18°C° 0 mm 4 m/s 756 mmHg 56%
    01:00 +17°C° 0 mm 3 m/s 756 mmHg 57%
    02:00 +17°C° 0 mm 3 m/s 756 mmHg 58%
    03:00 +16°C° 0 mm 3 m/s 756 mmHg 58%
    04:00 +16°C° 0 mm 3 m/s 756 mmHg 59%
    05:00 +16°C° 0 mm 3 m/s 756 mmHg 59%
    06:00 +17°C° 0 mm 3 m/s 756 mmHg 57%
    07:00 +17°C° 0 mm 3 m/s 756 mmHg 55%
    08:00 +18°C° 0 mm 4 m/s 756 mmHg 53%
    09:00 +20°C° 0 mm 4 m/s 756 mmHg 49%
    10:00 +22°C° 0 mm 4 m/s 756 mmHg 45%
    11:00 +23°C° 0 mm 5 m/s 756 mmHg 41%
    12:00 +23°C° 0 mm 5 m/s 756 mmHg 41%
    13:00 +23°C° 0 mm 5 m/s 755 mmHg 42%
    14:00 +25°C° 0 mm 5 m/s 755 mmHg 42%
    15:00 +23°C° 0 mm 5 m/s 755 mmHg 42%
    16:00 +23°C° 0 mm 4 m/s 755 mmHg 43%
    17:00 +23°C° 0 mm 4 m/s 755 mmHg 43%
    18:00 +22°C° 0 mm 4 m/s 755 mmHg 44%
    19:00 +21°C° 0 mm 4 m/s 756 mmHg 45%
    20:00 +20°C° 0 mm 3 m/s 756 mmHg 46%
    21:00 +20°C° 0 mm 4 m/s 756 mmHg 46%
    22:00 +19°C° 0 mm 4 m/s 757 mmHg 45%
    23:00 +19°C° 0 mm 4 m/s 757 mmHg 44%

    27 Septembrie, Miercuri

    Timp Temperatura Precipitaţii Vânt Presiune Umiditate
    00:00 +18°C° 0 mm 4 m/s 757 mmHg 47%
    01:00 +18°C° 0 mm 4 m/s 757 mmHg 50%
    02:00 +17°C° 0 mm 3 m/s 757 mmHg 52%
    03:00 +16°C° 0 mm 3 m/s 757 mmHg 53%
    04:00 +14°C° 0 mm 3 m/s 757 mmHg 53%
    05:00 +15°C° 0 mm 2 m/s 757 mmHg 54%
    06:00 +15°C° 0 mm 2 m/s 758 mmHg 51%
    07:00 +16°C° 0 mm 2 m/s 758 mmHg 47%
    08:00 +17°C° 0 mm 2 m/s 758 mmHg 44%
    09:00 +18°C° 0 mm 3 m/s 758 mmHg 40%
    10:00 +20°C° 0 mm 4 m/s 758 mmHg 37%
    11:00 +22°C° 0 mm 4 m/s 758 mmHg 33%
    12:00 +22°C° 0 mm 5 m/s 758 mmHg 33%
    13:00 +22°C° 0 mm 5 m/s 758 mmHg 33%
    14:00 +23°C° 0 mm 5 m/s 757 mmHg 33%
    15:00 +22°C° 0 mm 5 m/s 757 mmHg 34%
    16:00 +22°C° 0 mm 5 m/s 757 mmHg 36%
    17:00 +21°C° 0 mm 5 m/s 758 mmHg 37%
    18:00 +20°C° 0 mm 4 m/s 758 mmHg 39%
    19:00 +19°C° 0 mm 3 m/s 758 mmHg 42%
    20:00 +17°C° 0 mm 3 m/s 759 mmHg 45%
    21:00 +17°C° 0 mm 3 m/s 759 mmHg 45%
    22:00 +17°C° 0 mm 3 m/s 759 mmHg 45%
    23:00 +15°C° 0 mm 4 m/s 759 mmHg 46%

    28 Septembrie, Joi

    Timp Temperatura Precipitaţii Vânt Presiune Umiditate
    00:00 +15°C° 0 mm 4 m/s 759 mmHg 48%
    01:00 +14°C° 0 mm 3 m/s 759 mmHg 50%
    02:00 +14°C° 0 mm 3 m/s 759 mmHg 52%
    03:00 +13°C° 0 mm 3 m/s 760 mmHg 54%
    04:00 +13°C° 0 mm 3 m/s 760 mmHg 56%
    05:00 +12°C° 0 mm 3 m/s 760 mmHg 58%
    06:00 +13°C° 0 mm 3 m/s 760 mmHg 56%
    07:00 +14°C° 0 mm 3 m/s 760 mmHg 55%
    08:00 +14°C° 0 mm 3 m/s 760 mmHg 54%
    09:00 +17°C° 0 mm 3 m/s 760 mmHg 50%
    10:00 +19°C° 0 mm 4 m/s 760 mmHg 45%
    11:00 +20°C° 0 mm 4 m/s 760 mmHg 41%
    12:00 +21°C° 0 mm 4 m/s 760 mmHg 39%
    13:00 +21°C° 0 mm 4 m/s 760 mmHg 37%
    14:00 +22°C° 0 mm 4 m/s 759 mmHg 35%
    15:00 +21°C° 0 mm 4 m/s 759 mmHg 35%
    16:00 +21°C° 0 mm 4 m/s 759 mmHg 35%
    17:00 +21°C° 0 mm 4 m/s 759 mmHg 34%
    18:00 +19°C° 0 mm 4 m/s 759 mmHg 37%
    19:00 +18°C° 0 mm 3 m/s 760 mmHg 40%
    20:00 +16°C° 0 mm 3 m/s 760 mmHg 42%
    21:00 +16°C° 0 mm 3 m/s 760 mmHg 43%
    22:00 +16°C° 0 mm 3 m/s 761 mmHg 43%
    23:00 +14°C° 0 mm 3 m/s 761 mmHg 43%
    Arată mai mult